ONEWEB-0538, 56047

Orbit data source: Space-Track

ONEWEB-0538, 56047 is a payload satellite owned by One Web (NAA) (UK) in LEO that was launched on Sun, 26 Mar 2023 UTC via a LVM3 launch vehicle from the Sirharikota (SRI). Payload-class satellites include a variety of spacecraft equipped with specific instruments for various scientific and technological missions. These include communications satellites like Starlink; space stations such as the ISS; scientific satellites like the Hubble; Earth observation satellites from companies like Planet Labs, Umbra, and HawkEye 360; GPS; miniature CubeSats for education and research; and military/defense satellites.

Loading next visibility...
Identifier
56047, 2023-043B
Orbit
LEO
Country
Flag of UKUK
Related business
Manufacturer
One Web
Mission
Operational Commercial Communications
Bus & Motor
ARROW, Unknown motor
Mass
148 kg wet, ~140 kg dry
Launch date (UTC)
2023-03-26 (2 years ago)
Launch vehicle
LVM3
Launch site
Sirharikota (SRI)
Object type
Payload
Rocket body
Debris
Shape & HBR
Trap Box + 2 Pan, 2.5 m
Radar Cross Section
2.032 m², Large (>1 m²)

Expand to show TLE details & history
Last TLE update: 17 hours ago

TLE from 17 hours ago
0 ONEWEB-0538
1 56047U 23043B   25250.09959497  .00000054  00000-0  10831-3 0  9995
2 56047  87.8995 285.1995 0001718 100.8573 259.2752 13.16594292121727
Epoch: 2025-09-07T02:23Z
TLE epoch observation values (Epoch: 2025-09-07T02:23:25.005Z)
Latitude
0.00005°
Longitude
-97.07861°
Altitude
1,200.896 km
Speed
7.253 km/s
True Right ascension
19h 00m 47s
True Declination
0° 00' 00"
Sunlit
Object was in daylight at epoch
Visualization orbit readout
Latitude
Unknown
Longitude
Unknown
Altitude
Unknown
Speed
Unknown
Apparent Right ascension
Unknown
Apparent Declination
Unknown
Sunlit
N/A
Visualization observer readout
Local Sidereal Time
11:50:23
Azimuth
Unknown
Elevation
Unknown
Doppler factor
Unknown
Orbital elements
Apogee altitude
1,196.168 km
Perigee altitude
1,193.566 km
Semi-major axis
7,573.004 km
Eccentricity
0.00017
Inclination
87.8995°
RAAN
285.1995°
Arg. of periapsis
100.8573°
True anomaly
259.25586°
Mean anomaly
259.2752°
Eccentric anomaly
259.26553°
Mean motion
3.29337 °/min
Orbital period
109.31 mins
BSTAR
0.00010831
Loading maneuver chart data...
Computing Atmospheric mass density...
Loading historical data...
Loading historical data...
Loading historical data...
Loading historical data...
Loading historical data...
Loading historical data...
Loading historical data...

Documentation

Showing up to 5 results
|